GFSGBSN_sfc_rhum_276.txt.gz
RH
65 66 66 71 65 67 69 67 67 68 68 68 63 65 66 67 69 70 72 75 74 78 80 80 83 80 50 22 7 10 46 50 14 10 8 8 8 6 8 7 8 8 9 12 11 19 24
71 66 67 67 64 63 66 66 64 68 70 66 66 66 67 68 70 71 72 76 79 81 83 82 82 82 41 15 6 15 14 14 12 10 8 8 7 6 8 9 9 8 9 16 19 27 31
60 62 61 62 61 61 63 61 62 62 69 66 68 64 66 68 70 71 73 78 82 84 86 81 81 52 37 14 11 14 13 12 9 9 8 7 8 9 8 9 10 14 17 21 22 28 33
59 60 59 61 61 59 59 62 60 60 61 64 68 64 67 70 72 76 78 84 84 85 83 82 80 46 24 15 13 13 10 11 11 10 9 8 8 10 10 9 10 12 14 16 20 28 32
57 56 59 57 58 59 59 62 63 62 65 64 62 64 67 73 75 78 82 84 82 82 82 80 50 38 18 23 16 11 10 10 10 10 10 8 9 9 10 10 10 11 12 13 23 23 29
57 64 60 59 61 60 59 59 59 60 60 61 63 64 66 71 74 76 84 82 77 77 56 42 33 39 17 12 16 15 12 12 11 12 12 11 10 10 9 8 14 13 11 11 17 21 24
60 57 65 57 58 58 60 60 60 60 60 61 63 64 63 69 72 79 65 40 36 44 42 30 20 21 12 15 17 12 11 12 12 13 14 12 11 11 9 9 9 10 11 11 11 18 23
60 57 59 59 58 59 59 60 60 61 61 61 62 62 64 67 71 76 48 44 54 58 51 32 33 33 26 23 23 14 11 12 14 13 12 15 14 8 8 7 10 11 12 12 14 22 21
58 58 58 58 59 59 60 60 60 61 61 62 64 67 68 70 72 52 49 50 39 55 66 32 36 32 26 30 21 14 12 12 15 14 13 12 9 12 10 10 11 11 12 13 18 25 22
60 61 60 60 59 60 60 61 61 62 62 66 71 73 73 77 54 42 54 41 39 65 41 17 26 27 30 23 25 13 12 12 14 14 12 13 9 12 12 11 8 11 8 11 14 27 26
64 66 63 62 62 61 61 61 61 63 63 67 73 72 67 80 56 29 40 43 53 72 65 12 25 22 24 20 14 16 12 13 14 15 17 14 15 14 13 11 9 10 7 10 12 22 25
62 63 64 64 63 62 63 62 62 63 65 73 73 65 72 57 56 48 50 53 69 64 60 14 24 28 28 19 15 15 15 14 14 14 15 13 11 13 11 9 10 8 9 11 14 20 29
62 62 63 64 63 63 63 64 63 64 68 73 73 64 57 51 68 62 62 64 64 96 16 23 31 29 24 22 17 17 19 19 17 23 21 15 15 12 14 14 11 10 14 21 27 26 31
60 61 62 64 64 63 63 64 65 70 71 73 70 65 64 48 55 70 62 50 83 22 30 30 31 26 26 19 21 16 17 16 16 14 14 16 18 13 12 15 12 13 15 25 31 27 25
64 61 62 64 65 64 64 64 66 70 71 72 57 52 43 52 63 70 61 97 60 47 45 39 28 28 16 18 21 21 20 17 14 16 21 18 18 11 10 11 12 13 15 14 20 19 21
65 64 62 62 64 64 64 64 64 65 69 70 41 52 40 59 68 61 51 75 56 52 49 38 42 40 39 34 35 24 21 25 20 15 16 18 24 15 12 13 11 13 10 21 22 28 25
66 64 65 62 64 64 64 64 65 65 67 64 44 38 48 58 66 38 94 65 60 52 48 51 43 40 37 51 43 38 23 40 38 33 23 18 24 22 17 19 14 14 17 16 18 22 26
67 66 64 64 64 64 65 64 66 66 67 46 46 78 43 56 62 76 91 68 51 47 44 54 56 54 53 48 48 43 40 48 43 41 34 24 27 31 22 14 12 12 16 17 26 26 21
68 67 68 66 64 65 66 64 64 67 66 44 57 66 37 42 92 90 56 50 43 43 52 60 62 64 52 56 57 40 47 44 42 44 60 48 38 40 29 20 18 21 18 16 19 21 22
67 67 69 68 66 65 65 64 64 67 66 44 56 88 50 41 46 50 39 42 40 41 54 40 71 52 49 51 57 57 52 47 40 42 53 53 46 39 36 22 18 25 20 18 23 38 31
64 69 68 69 68 66 65 62 61 67 67 45 66 76 54 83 73 42 32 32 34 47 40 34 73 56 63 61 50 49 49 40 35 43 41 49 63 43 34 25 20 19 20 19 22 24 34
62 65 69 71 70 69 66 64 59 64 64 46 85 79 47 46 38 38 43 48 34 33 34 27 32 39 32 54 55 61 42 40 45 39 43 42 59 53 60 35 27 26 18 18 18 20 21
62 62 66 69 68 69 68 65 60 56 63 68 62 67 70 56 44 50 47 35 38 36 34 28 34 33 29 27 30 36 39 39 41 48 48 48 49 67 64 35 31 48 31 19 18 16 18
62 61 66 67 68 68 68 66 64 56 61 72 73 76 88 72 42 42 38 37 40 37 41 35 33 32 28 34 37 33 34 34 33 37 36 46 46 57 73 52 84 32 18 18 19 17 15
63 64 66 66 64 69 69 69 67 62 59 77 87 94 87 76 41 39 39 40 40 38 34 34 33 28 34 35 38 46 43 35 30 29 31 34 42 62 81 59 43 25 20 20 20 20 16
65 67 67 65 64 69 69 70 69 69 66 80 83 82 94 91 54 38 46 47 50 42 38 34 31 31 38 34 52 71 60 34 36 37 27 32 39 53 60 83 72 34 21 18 20 30 16
69 69 69 68 66 68 70 70 70 69 68 83 97 84 95 94 53 44 52 51 48 50 57 38 33 35 32 49 76 67 49 27 42 35 38 71 58 75 61 69 46 28 26 20 36 30 17
69 69 70 70 67 66 69 70 71 71 71 83 93 86 96 94 69 48 45 52 55 65 65 40 50 44 47 70 66 63 55 39 48 30 30 34 89 77 60 70 68 22 27 38 50 41 45
72 70 68 70 70 68 67 70 71 72 71 74 98 73 78 99 85 54 50 43 39 42 66 66 62 42 43 62 55 50 59 51 45 55 30 53 74 91 92 54 30 38 46 39 34 38 41

GFSGBSN_sfc_rhum_279.txt.gz
RH
61 62 61 62 63 62 64 64 62 62 63 66 65 67 66 67 68 68 69 72 73 78 80 81 81 82 48 23 11 11 42 41 14 8 7 6 7 7 9 10 9 9 8 7 7 8 10
62 61 62 61 61 60 62 65 64 62 66 66 66 64 66 67 68 68 68 71 77 80 82 83 80 84 42 21 4 6 7 9 9 8 6 6 6 6 7 8 10 9 9 8 8 10 17
57 60 61 59 61 60 61 61 63 62 63 62 64 65 66 67 67 67 69 74 78 82 83 83 80 47 27 15 7 6 8 6 6 7 8 6 6 8 7 9 8 9 9 9 11 15 20
63 62 58 61 61 61 61 60 61 61 62 63 64 64 66 68 68 71 74 79 82 83 83 80 80 33 24 8 6 7 6 7 7 7 7 6 6 8 8 8 9 10 12 15 12 14 18
57 62 63 59 59 60 60 61 61 62 62 62 63 62 66 70 73 76 79 81 83 82 79 78 54 33 17 21 9 6 5 6 6 6 8 7 7 9 8 10 11 12 15 15 12 14 19
62 58 59 59 60 60 61 62 60 62 62 63 62 61 67 72 74 76 80 82 69 78 66 35 25 31 18 7 10 9 7 6 8 8 9 10 8 9 8 8 11 11 14 13 14 15 17
58 59 59 60 60 62 60 60 62 62 62 63 62 65 70 72 73 77 64 29 40 49 39 24 18 15 8 9 10 9 7 8 8 10 12 9 9 8 8 8 7 7 9 12 11 12 18
60 62 61 59 60 61 61 60 61 62 63 64 69 73 74 70 73 75 52 33 42 48 44 18 17 17 12 12 17 9 7 10 11 11 9 9 12 7 5 6 6 7 9 11 10 11 16
64 67 64 63 62 61 62 63 62 62 63 67 73 75 75 73 73 54 41 38 27 42 46 17 18 17 14 16 19 10 9 8 9 11 9 10 8 7 6 6 8 9 10 11 11 16 15
62 63 63 64 64 62 63 65 63 63 67 72 74 74 74 80 62 28 43 31 33 56 42 23 19 20 18 17 18 10 8 9 9 11 9 9 7 7 9 9 8 12 7 8 10 17 20
60 61 62 63 63 63 63 63 64 64 68 74 75 74 72 77 45 25 33 37 42 73 82 10 16 16 17 17 12 10 8 10 12 11 10 11 10 10 9 9 7 10 7 7 9 12 20
61 62 60 64 64 64 63 64 63 65 71 74 75 70 71 49 48 41 39 45 67 71 75 12 18 22 21 18 13 11 11 10 10 11 10 11 7 9 8 7 7 7 9 9 9 11 24
66 64 61 61 63 64 64 64 66 69 72 74 74 65 59 43 57 48 52 56 70 100 11 17 21 20 19 18 16 12 15 16 14 20 18 12 11 8 10 11 10 9 14 16 15 16 18
65 64 64 62 62 64 64 64 68 72 74 73 71 65 57 41 46 57 58 50 98 19 20 19 20 18 19 12 13 15 14 15 12 12 12 12 15 9 8 11 10 10 12 22 23 17 13
65 64 65 64 63 64 64 65 68 72 73 72 69 41 37 47 56 57 58 97 65 37 36 37 24 16 12 11 15 15 17 14 11 12 18 16 14 7 8 8 10 12 13 10 19 14 15
66 66 66 64 65 64 64 64 65 69 72 72 41 38 36 50 58 60 48 75 45 46 35 33 33 21 28 18 26 24 15 25 26 19 18 16 21 12 10 9 8 11 8 16 18 26 24
65 67 66 67 65 64 64 65 65 66 70 69 36 36 41 48 53 44 92 56 47 34 32 40 38 35 30 27 27 30 23 37 34 32 29 24 24 20 14 14 13 11 13 14 14 18 26
62 66 67 67 67 65 65 65 66 66 70 46 36 80 36 40 52 68 85 50 44 33 30 37 38 47 44 40 37 33 30 42 36 35 42 38 40 30 19 12 10 12 12 13 21 20 17
61 63 67 67 68 68 66 65 64 66 66 47 45 47 31 37 98 96 42 39 31 36 44 41 45 44 43 43 44 31 29 49 36 36 51 44 43 36 25 18 14 16 13 12 14 18 20
61 61 64 68 68 69 68 66 64 64 64 52 49 95 50 40 38 41 37 31 31 26 35 30 45 39 42 44 34 39 36 34 35 31 52 46 48 47 35 22 16 21 16 15 17 31 27
61 61 62 64 68 70 69 68 68 63 64 51 52 73 47 89 77 39 34 31 28 34 26 22 41 45 40 47 44 45 40 43 32 34 36 44 57 44 36 27 21 22 20 15 17 17 27
62 62 62 62 68 69 69 68 67 60 64 40 82 78 46 41 37 36 42 47 31 30 32 31 30 29 28 36 32 37 30 32 39 32 36 40 65 48 53 36 34 34 26 20 15 14 15
62 62 62 63 66 67 69 69 68 61 60 56 41 42 63 55 37 42 46 33 34 33 31 26 28 33 32 27 28 31 32 34 36 42 45 44 47 44 66 41 37 54 32 23 18 14 15
63 62 62 66 66 65 65 72 68 68 57 51 54 54 79 72 38 36 34 32 32 31 36 30 30 33 27 23 27 28 24 25 29 31 29 38 44 45 56 49 92 42 22 17 18 16 14
63 64 67 67 66 66 65 68 72 70 67 54 69 78 89 79 43 37 34 37 33 32 35 34 28 24 26 32 39 40 45 35 27 25 27 30 36 61 72 50 42 30 22 20 19 18 14
65 65 68 69 67 68 67 67 73 70 68 76 81 78 100 95 58 35 40 38 40 40 43 36 27 27 33 35 52 73 63 37 34 23 19 23 30 51 57 63 64 33 21 17 22 32 29
67 67 68 69 70 70 68 66 68 70 69 80 87 79 100 99 51 45 52 49 38 38 50 34 35 35 36 48 76 69 54 29 40 34 30 38 37 57 56 67 39 20 16 17 50 52 38
69 69 70 70 70 69 70 68 68 68 70 82 87 82 98 98 69 48 46 56 52 44 58 35 45 48 49 69 62 63 55 43 38 29 26 30 52 83 48 59 62 17 21 33 60 41 34
71 71 71 73 72 70 68 71 68 68 69 75 98 73 84 100 85 44 43 40 36 36 51 48 54 46 56 59 59 52 61 51 38 46 25 44 35 58 90 69 30 43 53 40 36 36 33

GFSGBSN_sfc_rhum_282.txt.gz
RH
63 64 64 62 62 62 62 62 63 64 64 64 65 66 66 68 68 67 67 68 70 75 79 82 82 82 56 32 19 12 50 44 16 12 10 8 8 8 8 9 11 12 10 8 6 6 8
61 62 60 61 61 61 63 63 63 64 64 64 64 65 65 64 65 66 68 69 73 77 80 82 84 84 47 26 6 5 6 6 8 7 7 6 6 6 7 8 10 10 10 9 8 7 8
62 61 63 61 61 63 62 63 63 63 64 64 65 65 64 66 68 69 70 72 76 78 82 84 82 55 30 20 6 6 6 6 4 5 8 6 5 6 7 9 7 9 11 10 9 8 10
60 61 61 60 63 63 61 62 63 63 64 64 65 68 73 74 76 75 75 76 78 80 82 81 79 41 31 10 7 6 6 6 5 6 6 6 6 8 9 8 8 9 11 14 10 10 11
59 59 61 62 60 62 63 62 62 63 64 64 66 72 75 77 80 80 80 81 80 79 79 76 60 45 25 20 10 5 4 5 5 6 7 6 8 10 8 11 11 11 15 15 13 11 14
62 64 63 62 62 61 62 65 63 63 64 68 71 74 76 78 80 79 80 84 67 72 67 39 30 30 19 11 7 8 6 6 6 7 8 9 9 10 9 8 12 11 12 13 14 12 13
63 64 68 64 64 61 61 66 64 66 67 69 72 76 77 79 79 81 70 41 40 55 48 29 25 18 10 7 8 8 7 7 6 9 12 10 11 10 8 8 7 6 8 9 9 10 14
62 62 60 61 62 62 62 62 63 67 65 69 75 77 77 79 79 78 50 35 34 38 51 26 22 19 14 10 13 10 6 9 10 11 10 11 12 9 6 6 6 7 8 8 7 8 16
61 62 60 63 64 63 63 63 63 67 68 73 75 77 77 79 76 59 38 35 27 45 52 22 16 13 10 10 14 13 8 9 9 11 10 11 9 7 8 8 8 8 9 9 8 8 13
63 65 62 62 63 65 64 63 64 65 70 74 75 75 74 75 64 34 40 30 34 55 50 22 17 15 13 13 17 11 8 9 10 10 9 10 7 7 7 8 8 10 6 7 7 9 26
67 65 64 63 62 64 64 64 65 66 70 76 74 74 74 75 63 41 37 36 40 67 85 16 14 15 14 16 12 10 9 9 13 10 10 12 10 8 9 8 7 9 8 8 8 9 14
66 65 64 65 62 65 64 66 69 71 75 75 74 73 72 48 48 44 40 48 61 89 74 12 16 19 19 17 14 10 10 8 9 11 10 10 8 7 8 8 7 7 8 9 10 12 18
66 65 65 65 64 65 64 66 71 74 75 74 72 74 67 47 56 47 54 60 84 99 12 14 20 17 17 18 16 12 13 14 15 18 18 12 10 8 8 10 9 9 12 17 19 19 18
64 67 65 66 66 65 64 68 72 73 74 74 72 75 60 36 46 56 61 63 100 32 27 25 24 23 22 14 12 13 15 15 13 13 14 14 16 9 8 10 12 12 12 23 26 23 16
62 65 67 66 67 66 66 68 72 73 74 72 71 45 46 52 56 59 65 97 73 44 35 33 26 19 13 8 10 13 15 15 12 12 18 17 15 8 7 8 8 13 15 11 21 20 21
62 63 66 67 67 67 67 68 71 72 74 72 57 43 43 56 59 64 62 84 48 36 32 29 35 20 25 23 24 19 19 31 34 28 28 28 33 15 10 8 8 11 10 19 19 26 27
62 62 64 67 68 67 68 67 68 72 73 70 48 37 49 50 54 52 95 57 42 27 24 34 36 37 34 34 31 29 26 48 35 34 28 32 35 28 19 14 13 12 14 16 16 20 26
62 62 62 63 66 67 68 69 68 69 71 54 47 78 45 47 60 65 88 43 42 29 27 33 35 41 40 40 38 36 33 42 34 33 46 39 50 51 31 17 13 12 16 15 22 22 20
62 62 61 62 63 67 68 69 70 68 67 57 53 49 38 45 93 96 39 27 28 28 31 36 37 37 36 41 45 32 28 44 32 36 46 42 46 51 33 23 18 18 15 14 18 23 23
62 62 62 62 62 66 68 70 70 68 65 58 55 93 54 44 42 42 42 33 28 21 26 26 26 32 35 37 32 40 35 32 36 32 46 43 50 53 55 38 30 33 22 17 20 33 30
63 63 63 63 62 66 68 69 70 69 65 59 59 77 46 85 85 41 36 37 32 29 24 24 26 35 32 37 34 31 29 28 25 33 32 36 60 51 44 37 33 34 36 32 34 32 30
64 65 64 63 63 68 67 68 72 69 65 53 86 82 47 50 42 39 42 48 36 29 31 32 33 27 28 37 32 35 30 32 35 30 36 37 55 45 50 38 41 41 32 29 30 31 25
65 65 64 62 67 66 66 67 68 70 64 68 54 46 56 58 44 44 44 36 32 31 30 26 29 32 34 30 28 28 29 32 34 38 40 42 50 52 64 37 33 62 45 32 28 24 26
66 66 66 64 67 67 67 67 67 70 69 58 66 78 85 74 44 41 34 32 32 31 38 30 29 33 28 23 26 27 28 28 29 29 28 38 38 40 59 47 81 34 24 22 24 22 20
69 69 68 65 64 68 68 68 68 67 70 66 57 94 94 85 46 40 37 36 35 33 34 32 29 27 27 31 40 44 53 40 32 27 27 31 37 55 67 59 40 30 23 25 23 27 29
70 70 68 66 66 68 69 70 68 67 69 79 75 84 100 96 64 37 50 41 44 38 40 38 30 29 34 38 56 83 72 46 39 27 18 22 35 49 58 63 66 35 20 16 20 41 48
70 70 68 68 69 70 71 70 70 68 68 83 89 81 100 99 57 50 57 58 53 53 53 38 35 36 34 59 90 78 63 37 52 44 36 40 38 62 55 64 41 23 19 19 41 49 40
72 72 71 71 70 71 72 71 70 69 68 82 70 77 97 100 80 55 50 58 55 52 75 56 49 48 43 69 76 70 63 50 49 36 34 36 53 59 80 85 73 20 31 77 66 51 46
75 74 73 72 72 72 73 73 72 68 69 71 96 62 80 99 95 58 51 44 43 42 58 49 54 48 52 68 68 72 70 59 52 71 36 54 41 60 71 55 46 46 47 48 62 41 54

GFSGBSN_sfc_rhum_285.txt.gz
RH
58 60 62 61 62 61 61 62 62 63 65 66 66 66 66 66 69 69 70 71 71 73 77 79 80 82 85 64 49 23 58 52 29 18 19 16 12 13 15 12 12 14 14 13 10 11 11
63 63 63 62 61 63 64 63 63 64 65 66 66 66 66 69 70 72 74 75 74 76 78 80 82 82 90 49 15 13 22 23 17 17 14 11 10 9 10 10 12 11 11 13 14 11 10
63 64 64 61 63 62 60 63 65 64 65 66 66 70 71 72 75 76 77 76 77 79 79 81 84 75 56 41 16 18 10 9 7 7 9 10 11 10 11 13 11 10 13 13 13 14 12
63 70 65 64 66 63 62 64 65 65 65 66 67 74 77 78 80 81 80 81 80 79 80 82 80 67 64 22 23 17 12 9 9 7 9 8 9 14 18 13 13 15 16 20 15 15 13
61 60 60 62 62 61 63 62 62 64 65 68 72 75 78 79 81 82 82 83 82 80 81 81 84 75 59 23 15 12 9 8 8 8 9 6 13 17 14 18 20 21 23 20 18 15 18
61 60 60 62 64 63 65 62 66 66 69 72 75 76 78 79 80 82 82 79 75 76 72 51 44 59 38 17 12 11 10 7 8 10 12 13 16 19 19 21 22 23 20 20 22 15 19
63 63 61 61 62 62 62 62 64 70 72 73 76 77 77 79 81 81 81 72 52 75 62 57 42 31 19 13 11 12 11 11 11 13 18 16 20 24 17 15 13 11 12 12 16 13 18
66 64 63 62 61 61 63 63 65 70 70 74 76 76 76 77 78 80 78 50 47 58 79 38 34 33 28 24 22 13 12 14 15 16 16 19 22 16 13 11 11 11 11 11 9 8 12
65 64 64 63 62 63 63 63 64 70 71 75 76 75 76 79 79 75 51 45 44 68 90 41 28 24 23 16 19 18 15 16 15 16 16 20 16 12 12 12 12 12 13 13 11 9 8
64 65 64 64 64 65 64 64 65 66 72 76 76 75 75 78 74 72 59 46 50 71 96 32 21 19 15 16 21 13 12 16 15 16 16 16 12 11 11 12 12 15 10 10 11 13 15
66 66 65 65 66 66 65 65 66 68 72 76 74 74 75 77 87 73 56 56 59 76 86 23 19 16 15 19 19 16 14 16 18 16 14 16 14 14 14 12 10 14 13 14 14 15 20
63 65 66 65 66 67 68 70 72 74 76 75 74 73 77 72 73 65 57 67 85 95 52 19 22 21 21 21 20 16 16 16 17 16 15 16 12 13 13 11 10 14 13 13 18 19 26
63 63 65 67 66 67 68 72 75 76 76 75 72 74 76 64 84 63 70 91 97 92 27 32 30 26 25 22 19 19 18 20 22 28 27 18 16 13 11 14 14 16 21 29 27 29 26
62 62 63 65 67 68 70 74 76 76 76 76 74 73 72 64 70 77 91 94 95 49 44 31 30 27 28 23 20 17 20 23 20 20 22 24 29 16 12 14 16 17 20 45 35 32 19
62 62 63 63 65 68 69 74 75 76 76 75 71 69 74 64 70 78 96 99 88 52 39 39 30 27 25 23 30 29 30 43 38 37 52 48 30 16 14 11 12 17 20 16 26 28 33
62 63 63 63 63 64 71 73 75 76 77 75 68 80 70 59 70 88 95 87 74 32 28 31 39 37 44 40 38 39 40 45 42 36 38 46 55 27 22 21 19 13 13 24 30 38 38
63 63 63 62 62 66 69 71 74 76 76 70 73 74 64 48 73 87 100 72 46 27 30 36 43 43 43 48 44 43 46 49 39 39 42 48 63 53 32 33 30 28 22 24 27 35 40
63 63 63 63 62 62 66 68 72 76 75 67 84 93 54 51 87 95 95 44 46 28 30 35 40 42 47 45 46 42 38 49 41 40 47 44 58 75 44 30 26 27 29 27 31 30 31
63 63 63 63 63 62 67 68 70 75 71 81 95 87 58 65 96 95 60 36 28 27 30 36 35 32 42 48 54 43 41 37 28 39 52 46 66 81 50 33 30 33 34 34 38 40 35
64 64 64 65 64 63 66 68 68 70 70 82 92 98 88 81 78 62 59 49 41 30 31 28 34 31 41 40 36 43 37 29 31 32 46 48 60 68 86 67 51 56 46 40 43 68 63
64 64 66 66 65 64 68 68 69 69 70 85 95 91 66 95 88 68 55 46 47 38 32 32 41 39 44 49 43 42 36 37 33 38 41 50 67 55 50 43 41 42 41 42 46 42 58
66 66 67 67 67 66 67 68 69 68 70 88 98 96 81 76 61 60 56 62 47 34 40 39 42 37 37 51 46 54 45 43 45 40 44 46 72 58 64 46 41 41 35 32 36 38 36
67 68 68 69 68 67 64 67 70 67 72 93 90 88 92 76 66 70 70 50 45 45 42 31 39 45 47 40 39 42 42 44 43 46 49 53 58 64 66 42 44 60 43 33 31 34 36
70 70 69 69 68 66 65 67 70 68 69 95 93 95 100 94 65 60 52 44 43 43 51 41 40 46 40 34 37 40 38 35 38 39 39 51 51 51 65 51 92 33 26 24 27 27 27
71 70 68 68 69 66 67 68 69 69 67 96 91 98 100 98 71 62 54 56 56 51 51 46 40 40 37 44 62 62 63 56 44 35 38 38 48 69 88 61 43 35 27 29 33 34 27
70 70 69 69 69 68 69 70 70 70 69 91 94 94 100 99 86 56 61 67 73 62 63 58 43 40 48 53 85 93 84 54 51 37 29 31 42 57 80 79 79 42 26 22 25 40 52
72 71 72 72 71 71 70 71 71 71 70 88 96 89 99 99 91 74 82 80 71 77 82 66 56 55 50 78 93 90 76 51 61 54 54 52 51 65 77 79 58 32 27 36 52 98 96
74 74 74 74 74 72 72 72 71 72 71 85 88 90 98 99 89 76 70 81 76 76 89 70 74 76 70 88 92 84 81 63 60 48 49 52 73 77 63 84 83 58 58 83 94 94 77
77 76 76 75 74 74 73 72 71 72 71 73 96 77 89 99 97 88 80 78 75 65 80 73 76 71 75 94 96 96 92 75 68 85 47 84 65 86 80 84 50 32 56 56 85 56 53

GFSGBSN_sfc_rhum_288.txt.gz
RH
63 64 63 66 65 60 62 67 66 64 66 67 67 67 67 70 72 74 75 76 76 77 77 78 79 80 86 66 52 26 65 62 36 25 21 19 14 14 18 16 15 15 13 13 14 16 13
64 65 64 66 62 62 63 61 63 64 66 67 67 66 70 71 73 75 76 77 78 79 79 80 80 79 91 39 16 22 38 32 26 25 22 19 14 13 13 13 15 12 11 12 13 15 19
61 61 61 62 65 64 65 61 65 65 66 67 67 69 72 73 75 77 78 79 80 80 80 80 80 79 79 36 27 22 18 14 11 11 11 12 12 14 16 15 16 15 15 14 15 18 16
62 61 60 61 61 65 61 63 64 65 66 67 66 72 78 78 80 81 81 84 83 80 79 80 83 82 69 32 36 29 24 16 11 12 10 10 12 17 18 15 14 16 20 20 15 18 15
62 61 62 62 62 62 64 63 64 66 66 67 68 75 78 78 80 82 82 83 83 79 80 82 85 85 68 42 29 27 14 10 11 10 11 7 14 16 16 20 20 23 26 23 17 16 16
63 62 62 60 62 62 61 63 64 66 68 69 71 74 78 79 80 80 82 83 78 73 75 62 53 65 42 20 18 15 15 10 9 14 15 16 19 21 23 24 23 24 25 42 21 19 24
60 63 63 64 63 64 63 64 64 68 71 72 72 75 78 79 80 81 86 68 60 56 59 69 54 44 25 30 23 14 12 12 13 14 19 20 20 25 20 20 18 18 18 17 16 11 22
63 64 62 61 62 63 64 65 66 71 72 73 77 77 78 79 80 84 64 62 63 72 88 57 54 42 38 36 37 27 14 15 17 18 18 24 24 18 17 18 17 18 18 16 13 10 12
63 63 64 64 62 65 65 66 69 72 74 76 77 78 78 80 83 77 69 65 59 67 94 62 48 37 30 30 36 27 20 18 18 18 17 22 18 16 17 18 18 17 16 17 14 11 13
63 63 62 61 63 65 66 67 68 72 76 77 77 77 78 81 75 81 73 56 66 71 98 48 37 27 22 19 22 17 16 19 20 19 19 20 14 15 17 18 17 19 14 13 14 17 18
63 63 63 63 64 67 70 70 71 73 77 78 78 77 79 78 95 88 63 62 68 79 53 34 24 18 17 19 23 20 17 20 23 21 20 21 18 18 18 16 13 17 16 14 14 18 20
63 63 63 63 63 66 70 74 76 78 78 78 78 77 78 75 88 79 67 73 91 76 41 34 26 27 26 26 25 19 19 20 18 22 20 19 16 16 16 14 15 13 16 17 20 22 26
63 63 63 63 63 63 65 73 76 77 78 78 78 76 73 71 78 65 82 94 91 77 33 41 36 30 31 28 23 23 25 26 28 28 30 21 19 18 14 17 18 16 22 31 26 27 25
63 64 64 64 63 63 67 73 76 77 79 79 76 74 70 66 68 75 90 90 88 54 51 36 34 34 34 33 32 34 25 41 43 47 31 30 32 20 16 17 18 18 22 43 32 34 26
63 64 64 64 64 63 66 74 76 77 79 78 73 73 76 65 61 80 94 97 82 47 33 36 36 42 43 38 40 41 53 54 44 44 59 60 42 31 26 23 16 22 22 23 32 38 37
63 63 64 63 63 63 68 74 76 77 78 78 80 88 75 48 62 83 90 86 56 33 34 35 50 44 54 50 48 46 57 47 45 39 47 54 71 43 31 27 27 22 18 29 43 36 36
63 63 64 64 65 65 67 72 75 76 77 73 94 94 61 45 68 78 98 68 45 28 34 43 49 52 50 51 49 48 58 38 35 42 40 45 68 62 37 37 42 40 41 39 32 39 31
63 63 64 65 65 64 65 68 74 76 76 70 98 94 61 60 69 93 94 52 40 29 33 33 37 43 51 52 52 53 49 36 36 38 48 47 61 78 56 39 35 35 45 46 64 59 50
63 64 64 65 66 66 66 68 71 74 72 90 99 98 72 68 95 94 62 40 29 31 33 36 37 37 39 49 54 43 39 36 32 44 61 52 63 86 54 39 49 50 43 42 50 62 59
64 65 66 66 67 68 67 66 69 69 68 95 99 98 86 86 84 75 75 56 51 37 37 34 45 40 42 46 40 46 44 37 39 44 49 51 63 71 86 68 55 60 45 36 44 73 69
65 67 68 68 69 69 68 66 69 70 69 95 97 94 78 97 92 74 65 54 54 50 39 38 48 49 48 51 48 49 45 42 37 44 46 54 71 60 53 51 49 50 46 38 38 40 59
68 69 70 71 69 70 67 67 68 71 71 92 99 99 95 95 75 68 72 70 63 51 44 48 50 47 47 56 53 56 48 48 46 46 47 51 60 45 43 43 48 52 43 39 35 30 32
70 71 70 69 68 69 68 66 68 69 78 97 97 94 99 83 81 78 75 62 58 55 52 41 46 49 50 52 48 46 44 47 46 48 50 54 57 58 53 48 41 57 41 32 25 25 30
72 70 69 68 67 69 68 68 68 68 72 96 97 99 99 94 79 72 67 62 70 64 62 50 47 51 51 41 45 47 46 46 50 50 48 54 58 54 62 46 78 32 27 26 31 31 47
72 71 70 68 68 69 70 69 69 69 70 98 98 98 99 98 79 74 66 61 69 67 64 56 49 46 43 49 61 67 69 51 42 40 48 48 52 76 88 60 45 36 28 29 34 48 86
72 72 72 70 70 72 72 71 71 70 70 94 98 98 100 99 94 69 80 74 82 75 76 67 58 46 52 56 84 95 91 48 52 41 35 39 52 64 77 81 82 48 54 47 36 68 89
75 74 74 73 74 74 73 72 72 71 70 90 96 94 100 99 79 79 93 86 77 84 93 82 72 63 55 79 95 93 69 42 54 46 43 52 50 68 78 90 63 67 45 53 66 96 85
78 76 76 75 75 75 74 73 72 72 70 86 96 96 98 97 84 78 76 85 80 85 91 74 81 81 82 87 92 88 85 62 72 52 54 63 87 86 79 87 89 40 47 79 80 89 74
78 77 77 76 76 76 75 74 73 74 70 76 98 89 93 100 97 78 76 72 69 68 84 90 83 79 92 95 93 97 96 96 56 68 41 68 72 95 98 85 55 51 55 44 82 59 55